{"data":{"norad_id":55277,"epoch":"2026-09-20T22:00:03.000096Z","epoch_age_seconds":57369,"freshness":"FRESH","line1":"1 55277U 23010J   26263.91670139  .00115473  00000+0  80520-2 0  9994","line2":"2 55277  69.9994 272.2061 0005748 245.1547 325.1506 15.04731131  5762","mean_motion":15.04731131,"eccentricity":0.0005748,"inclination_deg":69.9994,"raan_deg":272.2061,"arg_perigee_deg":245.1547,"mean_anomaly_deg":325.1506,"bstar":0.008052,"rev_number":576,"period_min":95.698159646835,"perigee_km":548.34749471349,"apogee_km":556.3147608732,"semimajor_km":6930.4681277933,"source":"CELESTRAK","updated_at":"2026-09-21T09:00:33.165579Z"}}